Hourly Weather Homichi

Today, 16 April, Friday

Time Temperature Precipitation Wind Pressure Humidity
00:00 +3°C° 0 mm 5 mps 738 mmHg 96%
01:00 +3°C° 0 mm 5 mps 738 mmHg 96%
02:00 +5°C° 0 mm 5 mps 737 mmHg 96%
03:00 +5°C° 0 mm 5 mps 737 mmHg 96%
04:00 +6°C° 0 mm 5 mps 737 mmHg 96%
05:00 +6°C° 0 mm 4 mps 737 mmHg 97%
06:00 +6°C° 0.3 mm 4 mps 737 mmHg 96%
07:00 +6°C° 0.3 mm 4 mps 737 mmHg 95%
08:00 +6°C° 0 mm 5 mps 737 mmHg 95%
09:00 +6°C° 0.3 mm 5 mps 737 mmHg 92%
10:00 +7°C° 0.3 mm 5 mps 737 mmHg 89%
11:00 +8°C° 0.3 mm 5 mps 738 mmHg 86%
12:00 +9°C° 0.4 mm 5 mps 738 mmHg 83%
13:00 +10°C° 0.4 mm 6 mps 738 mmHg 80%
14:00 +10°C° 0.4 mm 7 mps 738 mmHg 76%
15:00 +10°C° 0.6 mm 6 mps 738 mmHg 75%
16:00 +10°C° 0.6 mm 6 mps 738 mmHg 74%
17:00 +10°C° 0.6 mm 5 mps 738 mmHg 73%
18:00 +9°C° 0.1 mm 5 mps 738 mmHg 78%
19:00 +8°C° 0.1 mm 4 mps 739 mmHg 83%
20:00 +7°C° 0.1 mm 3 mps 739 mmHg 88%
21:00 +7°C° 0 mm 3 mps 739 mmHg 89%
22:00 +7°C° 0 mm 3 mps 739 mmHg 91%
23:00 +5°C° 0 mm 3 mps 740 mmHg 93%

Tomorrow, 17 April, Saturday

Time Temperature Precipitation Wind Pressure Humidity
00:00 +5°C° 0 mm 3 mps 740 mmHg 94%
01:00 +5°C° 0 mm 3 mps 740 mmHg 95%
02:00 +5°C° 0 mm 3 mps 740 mmHg 96%
03:00 +4°C° 0 mm 3 mps 740 mmHg 96%
04:00 +4°C° 0 mm 3 mps 740 mmHg 96%
05:00 +5°C° 0 mm 2 mps 740 mmHg 96%
06:00 +5°C° 0 mm 3 mps 741 mmHg 93%
07:00 +7°C° 0 mm 3 mps 741 mmHg 89%
08:00 +8°C° 0 mm 3 mps 741 mmHg 85%
09:00 +10°C° 0.3 mm 3 mps 742 mmHg 78%
10:00 +11°C° 0.3 mm 4 mps 742 mmHg 71%
11:00 +12°C° 0.3 mm 4 mps 742 mmHg 63%
12:00 +13°C° 0.2 mm 4 mps 742 mmHg 60%
13:00 +13°C° 0.2 mm 4 mps 742 mmHg 56%
14:00 +14°C° 0.2 mm 4 mps 742 mmHg 52%
15:00 +14°C° 0 mm 4 mps 742 mmHg 53%
16:00 +13°C° 0 mm 3 mps 742 mmHg 54%
17:00 +13°C° 0 mm 3 mps 742 mmHg 55%
18:00 +12°C° 0 mm 3 mps 742 mmHg 62%
19:00 +10°C° 0 mm 3 mps 742 mmHg 68%
20:00 +9°C° 0 mm 3 mps 743 mmHg 74%
21:00 +9°C° 0.2 mm 3 mps 742 mmHg 80%
22:00 +8°C° 0.2 mm 3 mps 742 mmHg 85%
23:00 +7°C° 0.2 mm 4 mps 742 mmHg 91%

Day after tomorrow, 18 April, Sunday

Time Temperature Precipitation Wind Pressure Humidity
00:00 +7°C° 0.2 mm 4 mps 742 mmHg 90%
01:00 +8°C° 0.2 mm 4 mps 742 mmHg 90%
02:00 +8°C° 0.2 mm 4 mps 741 mmHg 89%
03:00 +7°C° 0 mm 4 mps 742 mmHg 90%
04:00 +6°C° 0 mm 4 mps 742 mmHg 92%
05:00 +6°C° 0 mm 5 mps 742 mmHg 93%
06:00 +6°C° 0 mm 5 mps 742 mmHg 89%
07:00 +7°C° 0 mm 5 mps 742 mmHg 85%
08:00 +7°C° 0 mm 5 mps 742 mmHg 82%
09:00 +7°C° 0 mm 5 mps 742 mmHg 79%
10:00 +8°C° 0 mm 5 mps 742 mmHg 76%
11:00 +8°C° 0 mm 5 mps 742 mmHg 73%
12:00 +8°C° 0 mm 5 mps 743 mmHg 71%
13:00 +10°C° 0 mm 4 mps 743 mmHg 69%
14:00 +10°C° 0 mm 4 mps 743 mmHg 67%
15:00 +10°C° 0 mm 4 mps 743 mmHg 68%
16:00 +10°C° 0 mm 4 mps 743 mmHg 69%
17:00 +10°C° 0 mm 4 mps 743 mmHg 71%
18:00 +7°C° 0 mm 4 mps 743 mmHg 76%
19:00 +6°C° 0 mm 4 mps 743 mmHg 82%
20:00 +5°C° 0 mm 3 mps 743 mmHg 88%
21:00 +4°C° 0 mm 3 mps 743 mmHg 90%
22:00 +4°C° 0 mm 3 mps 743 mmHg 92%
23:00 +3°C° 0 mm 3 mps 743 mmHg 94%

19 April, Monday

Time Temperature Precipitation Wind Pressure Humidity
00:00 +3°C° 0 mm 3 mps 743 mmHg 95%
01:00 +3°C° 0 mm 3 mps 743 mmHg 95%
02:00 +3°C° 0 mm 3 mps 743 mmHg 95%
03:00 +3°C° 0 mm 3 mps 743 mmHg 94%
04:00 +3°C° 0 mm 3 mps 742 mmHg 94%
05:00 +3°C° 0 mm 3 mps 742 mmHg 93%
06:00 +4°C° 0 mm 3 mps 742 mmHg 89%
07:00 +4°C° 0 mm 4 mps 742 mmHg 86%
08:00 +5°C° 0 mm 4 mps 742 mmHg 82%
09:00 +5°C° 0 mm 4 mps 742 mmHg 80%
10:00 +6°C° 0 mm 5 mps 742 mmHg 79%
11:00 +6°C° 0 mm 5 mps 741 mmHg 77%
12:00 +6°C° 0.1 mm 5 mps 741 mmHg 79%
13:00 +6°C° 0.1 mm 5 mps 741 mmHg 81%
14:00 +5°C° 0.1 mm 5 mps 740 mmHg 83%
15:00 +5°C° 0.1 mm 5 mps 740 mmHg 85%
16:00 +5°C° 0.1 mm 4 mps 740 mmHg 87%
17:00 +5°C° 0.1 mm 4 mps 739 mmHg 89%
18:00 +5°C° 0.2 mm 4 mps 739 mmHg 89%
19:00 +5°C° 0.2 mm 4 mps 739 mmHg 89%
20:00 +3°C° 0.2 mm 5 mps 738 mmHg 89%
21:00 +4°C° 0.3 mm 4 mps 738 mmHg 89%
22:00 +4°C° 0.3 mm 4 mps 737 mmHg 89%
23:00 +4°C° 0.3 mm 4 mps 737 mmHg 89%

20 April, Tuesday

Time Temperature Precipitation Wind Pressure Humidity
00:00 +4°C° 0.2 mm 3 mps 737 mmHg 90%
01:00 +4°C° 0.2 mm 3 mps 736 mmHg 91%
02:00 +4°C° 0.2 mm 2 mps 736 mmHg 92%
03:00 +4°C° 0.1 mm 2 mps 735 mmHg 94%
04:00 +4°C° 0.1 mm 2 mps 735 mmHg 95%
05:00 +3°C° 0.1 mm 2 mps 735 mmHg 96%
06:00 +4°C° 0 mm 2 mps 734 mmHg 94%
07:00 +4°C° 0 mm 3 mps 734 mmHg 92%
08:00 +5°C° 0 mm 3 mps 734 mmHg 89%
09:00 +5°C° 0.1 mm 3 mps 733 mmHg 89%
10:00 +5°C° 0.1 mm 3 mps 733 mmHg 88%
11:00 +5°C° 0.1 mm 3 mps 732 mmHg 88%
12:00 +6°C° 0.1 mm 4 mps 732 mmHg 87%
13:00 +6°C° 0.1 mm 4 mps 731 mmHg 86%
14:00 +6°C° 0.1 mm 5 mps 730 mmHg 84%
15:00 +6°C° 0.2 mm 5 mps 730 mmHg 87%
16:00 +5°C° 0.2 mm 4 mps 729 mmHg 90%
17:00 +4°C° 0.2 mm 4 mps 729 mmHg 93%
18:00 +4°C° 0.3 mm 4 mps 728 mmHg 94%
19:00 +3°C° 0.3 mm 4 mps 728 mmHg 95%
20:00 +3°C° 0.3 mm 4 mps 728 mmHg 96%
21:00 +1°C° 0.6 mm 4 mps 727 mmHg 96%
22:00 +1°C° 0.6 mm 4 mps 727 mmHg 97%
23:00 +1°C° 0.6 mm 4 mps 726 mmHg 97%

21 April, Wednesday

Time Temperature Precipitation Wind Pressure Humidity
00:00 +1°C° 0.7 mm 4 mps 726 mmHg 97%
01:00 0°C° 0.7 mm 4 mps 726 mmHg 97%
02:00 0°C° 0.7 mm 4 mps 726 mmHg 97%
03:00 0°C° 0.5 mm 4 mps 726 mmHg 97%
04:00 0°C° 0.5 mm 4 mps 725 mmHg 97%
05:00 +1°C° 0.5 mm 5 mps 725 mmHg 97%
06:00 +1°C° 0.6 mm 5 mps 726 mmHg 97%
07:00 +1°C° 0.6 mm 5 mps 726 mmHg 97%
08:00 +1°C° 0.6 mm 5 mps 726 mmHg 96%
09:00 +1°C° 0.5 mm 5 mps 727 mmHg 96%
10:00 +2°C° 0.5 mm 6 mps 727 mmHg 96%
11:00 +2°C° 0.5 mm 6 mps 728 mmHg 96%
12:00 +2°C° 0.6 mm 6 mps 728 mmHg 96%
13:00 +2°C° 0.6 mm 7 mps 729 mmHg 96%
14:00 +2°C° 0.6 mm 7 mps 730 mmHg 96%
15:00 +3°C° 0.3 mm 7 mps 731 mmHg 95%
16:00 +3°C° 0.3 mm 7 mps 731 mmHg 93%
17:00 +3°C° 0.3 mm 6 mps 732 mmHg 92%
18:00 +3°C° 0.1 mm 6 mps 733 mmHg 91%
19:00 +3°C° 0.1 mm 6 mps 734 mmHg 89%
20:00 +3°C° 0.1 mm 5 mps 734 mmHg 88%
21:00 +3°C° 0 mm 5 mps 735 mmHg 89%
22:00 +2°C° 0 mm 5 mps 736 mmHg 91%
23:00 +2°C° 0 mm 5 mps 736 mmHg 93%
Show more